Regional Weather Roundup
Issued by NWS

Current Version | Previous Version | Text Only | Print | Product List | Glossary Off
Versions: 1 2 3 4 5 6 7 8 9 10 11 12 13 14 15 16 17 18 19 20 21 22 23 24 25 26 27 28 29 30 31 32 33 34 35 36 37 38 39 40 41 42 43 44 45 46 47 48 49 50

380
ASUS44 KJAN 290410
RWRMS

MISSISSIPPI HOURLY WEATHER ROUNDUP
NATIONAL WEATHER SERVICE JACKSON MS
1100 PM CDT FRI APR 28 2017

NOTE: "FAIR: INDICATES FEW OR NO CLOUDS BELOW 12,000 FEET WITH NO
SIGNIFICANT WEATHER AND/OR OBSTRUCTIONS TO VISIBILITY.

MSZ001>002-007>008-010>013-018>021-025>028-034>036-290500-
NORTHWEST MISSISSIPPI

CITY           SKY/WX    TMP DP  RH WIND       PRES   REMARKS
BATESVILLE     FAIR      79  70  73 SE7       29.89S
CLARKSDALE     CLEAR     79  73  83 SE13G18   29.85R
CLEVELAND      FAIR      79  74  85 S18G26    29.85R
GREENWOOD      CLEAR     79  71  76 S15       29.88R
GREENVILLE     CLEAR     78  70  76 S15       29.84R
OXFORD         FAIR      75  66  73 SE7       29.92S
TUNICA         CLEAR     75  70  83 SE10      29.86R
WINONA         FAIR      77  71  82 S10       29.91R
$$

MSZ003>006-009-014>017-022>024-029>033-037>039-290500-
NORTHEAST MISSISSIPPI

CITY           SKY/WX    TMP DP  RH WIND       PRES   REMARKS
COLUMBUS AFB   CLEAR     78  71  80 S12       29.96R
CORINTH        FAIR      77  68  73 S9G16     29.92R
GOLDN TRIANGLE PTCLDY    75  64  69 SE12      29.94R
STARKVILLE     FAIR      75  68  78 S9        29.97R
TUPELO         CLEAR     77  67  71 SE12      29.93R
$$

MSZ040-058-290500-
CENTRAL MISSISSIPPI

CITY           SKY/WX    TMP DP  RH WIND       PRES   REMARKS
JACKSON INTL   PTCLDY    78  71  79 S15       29.93R
JACKSON HAWKNS PTCLDY    77  71  82 S13G24    29.93R
MADISON        FAIR      75  70  83 SE7       29.93R
MERIDIAN KEY   CLOUDY    78  73  84 S12       29.99R
MERIDIAN NAS   MOCLDY    77  69  76 S6        29.99R
RAYMOND        MOCLDY    79  72  78 SE12G17   29.91R HAZE
VICKSBURG VKS  PTCLDY    79  72  78 SE10G17   29.86R
$$

MSZ059>079-290500-
SOUTH MISSISSIPPI

CITY           SKY/WX    TMP DP  RH WIND       PRES   REMARKS
HATTIESBURG    CLOUDY    77  72  84 SE12      29.99R
LAUREL         CLOUDY    76  76 100 S8        29.99R
MCCOMB         CLOUDY    77  71  82 SE15G24   29.94R
NATCHEZ        CLOUDY    78  73  84 S12G18    29.89R
PINE BELT      CLOUDY    75  70  83 S12       29.99R
$$

MSZ080>082-290500-
COASTAL MISSISSIPPI

CITY           SKY/WX    TMP DP  RH WIND       PRES   REMARKS
BILOXI         CLOUDY    77  74  91 SE10      29.99R
PASCAGOULA     CLOUDY    77  72  84 SE13      30.01R
GULFPORT       CLOUDY    78  76  93 SE17      29.98S FOG
$$

LAZ007>009-015>016-023>026-290500-
NORTHEAST LOUISIANA

CITY           SKY/WX    TMP DP  RH WIND       PRES   REMARKS
BASTROP        FAIR      79  74  85 S6        29.83S
TALLULAH/VBURG MOCLDY    78  71  79 S13       29.88R
VIDALIA        MOCLDY    79  72  79 SE18      29.86S
$$




USA.gov is the U.S. government's official web portal to all federal, state and local government web resources and services.